Weather History for KTTA - July, 2013

Change the Weather History Date:

Thursday, July 25, 2013

  Actual Average (KRDU) Record (KRDU)
Temperature  
Mean Temperature 74 °F 80 °F  
Max Temperature 80 °F 90 °F 102 °F (2010)
Min Temperature 67 °F 70 °F 56 °F (1947)
Degree Days  
Heating Degree Days 0 0  
Month to date heating degree days 0  
Since 1 June heating degree days 4  
Since 1 July heating degree days 0  
Cooling Degree Days 9 15  
Month to date cooling degree days 375  
Year to date cooling degree days 931  
Since 1 June cooling degree days 722  
Growing Degree Days 24 (Base 50)    
Moisture  
Dew Point 68 °F    
Average Humidity 83    
Maximum Humidity 97    
Minimum Humidity 63    
Precipitation  
Precipitation 0.02 in 0.16 in 1.76 in (1985)
Month to date precipitation 3.78  
Year to date precipitation 24.33  
Sea Level Pressure  
Sea Level Pressure 29.93 in    
Wind  
Wind Speed 3 mph (North)    
Max Wind Speed 10 mph    
Max Gust Speed -    
Visibility 9 miles    
Events Rain    
T = Trace of Precipitation, MM = Missing Value Source: NWS Daily Summary

Daily Weather History Graph

Daily Weather History Graph

Search for Another Location

Airport or City:

Trip Planner

Search our weather history database for the weather conditions in past years. The results will help you decide how hot, cold, wet, or windy it might be!

Date:

Astronomy

Jul. 25, 2013 Rise Set
Actual Time 6:19 AM EDT 8:25 PM EDT
Civil Twilight 5:50 AM EDT 8:54 PM EDT
Nautical Twilight 5:16 AM EDT 9:29 PM EDT
Astronomical Twilight 4:38 AM EDT 10:06 PM EDT
Moon 10:16 PM EDT (7/25) 9:37 AM EDT (7/25)
Length of Visible Light 15h 03m
Length of Day
14h 06m
Waning Gibbous, 88% of the Moon is Illuminated
Jul 25
Waning Gibbous
Jul 29
Last Quarter
Aug 6
New
Aug 14
First Quarter
Aug 20
Full

Hourly Weather History & Observations

Time (EDT) Temp. Heat Index Dew Point Humidity Pressure Visibility Wind Dir Wind Speed Gust Speed Precip Events Conditions
12:15 AM 72.5 °F - 70.3 °F 93% 29.85 in 10.0 mi Calm Calm - N/A Rain Light Rain
12:35 AM 72.1 °F - 70.2 °F 93% 29.87 in 10.0 mi Calm Calm - 0.01 in Rain Light Rain
12:55 AM 72.0 °F - 70.0 °F 93% 29.87 in 10.0 mi Calm Calm - 0.01 in   Light Drizzle
1:15 AM 71.8 °F - 70.0 °F 94% 29.87 in 7.0 mi Calm Calm - N/A   Clear
1:35 AM 71.1 °F - 69.8 °F 96% 29.87 in 5.0 mi NE 4.6 mph - N/A   Scattered Clouds
1:55 AM 69.8 °F - 68.4 °F 95% 29.86 in 7.0 mi ENE 4.6 mph - N/A Rain Light Rain
2:15 AM 69.8 °F - 68.4 °F 95% 29.85 in 7.0 mi Calm Calm - N/A   Light Drizzle
2:35 AM 70.0 °F - 68.5 °F 95% 29.85 in 4.0 mi Calm Calm - N/A   Light Drizzle
2:55 AM 69.8 °F - 68.5 °F 96% 29.84 in 1.5 mi Calm Calm - N/A Rain Light Rain
3:15 AM 70.7 °F - 69.4 °F 96% 29.83 in 5.0 mi Calm Calm - N/A Rain Light Rain
3:35 AM 71.2 °F - 69.4 °F 94% 29.83 in 10.0 mi North 4.6 mph - N/A Rain Light Rain
3:55 AM 70.7 °F - 68.2 °F 92% 29.83 in 10.0 mi North 8.1 mph - 0.01 in Rain Light Rain
4:15 AM 70.0 °F - 67.3 °F 91% 29.84 in 10.0 mi NNW 5.8 mph - N/A   Clear
4:35 AM 69.6 °F - 66.6 °F 90% 29.84 in 10.0 mi North 5.8 mph - N/A Rain Light Rain
4:55 AM 69.3 °F - 66.7 °F 92% 29.84 in 10.0 mi North 6.9 mph - N/A   Light Drizzle
5:15 AM 69.4 °F - 67.3 °F 93% 29.84 in 10.0 mi North 5.8 mph - N/A   Overcast
5:35 AM 69.8 °F - 68.0 °F 94% 29.85 in 10.0 mi NNW 5.8 mph - N/A   Mostly Cloudy
5:55 AM 70.0 °F - 68.2 °F 94% 29.85 in 10.0 mi North 3.5 mph - N/A   Mostly Cloudy
6:15 AM 70.2 °F - 68.4 °F 94% 29.86 in 10.0 mi North 3.5 mph - N/A   Mostly Cloudy
6:35 AM 70.3 °F - 68.5 °F 94% 29.86 in 10.0 mi Calm Calm - N/A   Overcast
6:55 AM 70.7 °F - 68.4 °F 92% 29.87 in 10.0 mi NNE 8.1 mph - N/A   Mostly Cloudy
7:15 AM 70.7 °F - 68.4 °F 92% 29.88 in 10.0 mi NNE 4.6 mph - N/A   Overcast
7:35 AM 71.1 °F - 68.5 °F 92% 29.89 in 10.0 mi NNW 3.5 mph - N/A   Overcast
7:55 AM 70.7 °F - 67.8 °F 91% 29.89 in 10.0 mi North 6.9 mph - N/A   Overcast
8:15 AM 71.1 °F - 67.1 °F 87% 29.90 in 10.0 mi North 5.8 mph - N/A   Scattered Clouds
8:35 AM 72.3 °F - 66.7 °F 83% 29.90 in 10.0 mi North 6.9 mph - N/A   Clear
8:55 AM 72.0 °F - 66.2 °F 82% 29.91 in 10.0 mi North 6.9 mph - N/A   Mostly Cloudy
9:15 AM 71.8 °F - 66.4 °F 83% 29.92 in 10.0 mi North 5.8 mph - N/A   Overcast
9:35 AM 72.0 °F - 66.4 °F 83% 29.93 in 10.0 mi North 5.8 mph - N/A   Overcast
9:55 AM 72.0 °F - 66.4 °F 83% 29.92 in 10.0 mi North 6.9 mph - N/A   Overcast
10:15 AM 72.5 °F - 66.6 °F 82% 29.93 in 10.0 mi North 6.9 mph - N/A   Overcast
10:35 AM 72.9 °F - 66.9 °F 82% 29.93 in 10.0 mi North 9.2 mph - N/A   Overcast
10:55 AM 73.4 °F - 67.1 °F 81% 29.94 in 10.0 mi NNW 10.4 mph - N/A   Overcast
11:15 AM 74.3 °F - 67.5 °F 79% 29.94 in 10.0 mi North 4.6 mph - N/A   Overcast
11:35 AM 75.4 °F - 67.3 °F 76% 29.95 in 10.0 mi NE 5.8 mph - N/A   Overcast
11:55 AM 76.6 °F - 68.2 °F 75% 29.95 in 10.0 mi NNE 8.1 mph - N/A   Overcast
12:15 PM 76.1 °F - 67.5 °F 74% 29.96 in 10.0 mi NNE 8.1 mph - N/A   Overcast
12:35 PM 76.1 °F - 67.5 °F 74% 29.96 in 10.0 mi NNE 6.9 mph - N/A   Overcast
12:55 PM 76.1 °F - 67.3 °F 74% 29.95 in 10.0 mi NE 5.8 mph - N/A   Overcast
1:15 PM 76.5 °F - 67.3 °F 73% 29.96 in 10.0 mi Calm Calm - N/A   Overcast
1:35 PM 77.5 °F - 67.8 °F 72% 29.95 in 10.0 mi NNE 5.8 mph - N/A   Overcast
1:55 PM 77.5 °F - 68.0 °F 72% 29.95 in 10.0 mi ENE 3.5 mph - N/A   Overcast
2:15 PM 77.9 °F - 68.2 °F 72% 29.95 in 10.0 mi NE 4.6 mph - N/A   Overcast
2:35 PM 77.9 °F - 68.4 °F 72% 29.95 in 10.0 mi NNE 6.9 mph - N/A   Overcast
2:55 PM 78.6 °F - 68.2 °F 70% 29.95 in 10.0 mi NNE 6.9 mph - N/A   Overcast
3:15 PM 79.3 °F - 68.2 °F 69% 29.96 in 10.0 mi North 5.8 mph - N/A   Overcast
3:35 PM 79.3 °F - 68.4 °F 69% 29.96 in 10.0 mi North 6.9 mph - N/A   Overcast
3:55 PM 79.3 °F - 68.2 °F 69% 29.96 in 10.0 mi North 5.8 mph - N/A   Mostly Cloudy
4:15 PM 79.9 °F - 68.0 °F 67% 29.96 in 10.0 mi North 8.1 mph - N/A   Overcast
4:35 PM 79.7 °F - 68.0 °F 67% 29.96 in 10.0 mi North 8.1 mph - N/A   Overcast
4:55 PM 80.1 °F 82.6 °F 67.8 °F 66% 29.96 in 10.0 mi North 9.2 mph - N/A   Overcast
5:15 PM 80.8 °F 83.2 °F 67.3 °F 63% 29.96 in 10.0 mi North 6.9 mph - N/A   Scattered Clouds
5:35 PM 80.6 °F 82.9 °F 66.9 °F 63% 29.96 in 10.0 mi NNE 5.8 mph - N/A   Clear
5:55 PM 80.6 °F 82.9 °F 66.7 °F 63% 29.96 in 10.0 mi NNE 5.8 mph - N/A   Clear
6:15 PM 80.4 °F 82.7 °F 66.7 °F 63% 29.96 in 10.0 mi NNE 4.6 mph - N/A   Clear
6:35 PM 79.9 °F - 67.5 °F 66% 29.96 in 10.0 mi NNE 3.5 mph - N/A   Clear
6:55 PM 79.9 °F - 67.5 °F 66% 29.96 in 10.0 mi North 5.8 mph - N/A   Scattered Clouds
7:15 PM 79.3 °F - 67.6 °F 67% 29.96 in 10.0 mi North 4.6 mph - N/A   Scattered Clouds
7:35 PM 78.4 °F - 67.3 °F 68% 29.97 in 10.0 mi NNW 5.8 mph - N/A   Clear
7:55 PM 77.7 °F - 68.0 °F 72% 29.98 in 10.0 mi Calm Calm - N/A   Clear
8:15 PM 75.2 °F - 69.4 °F 82% 29.98 in 10.0 mi Calm Calm - N/A   Clear
8:35 PM 73.6 °F - 69.1 °F 86% 29.99 in 10.0 mi Calm Calm - N/A   Clear
8:55 PM 72.5 °F - 69.3 °F 90% 29.99 in 10.0 mi Calm Calm - N/A   Clear
9:15 PM 71.6 °F - 69.1 °F 92% 29.99 in 7.0 mi Calm Calm - N/A   Clear
9:35 PM 70.7 °F - 68.5 °F 93% 30.00 in 5.0 mi Calm Calm - N/A   Clear
9:55 PM 70.5 °F - 68.9 °F 95% 30.01 in 7.0 mi Calm Calm - N/A   Clear
10:15 PM 70.0 °F - 68.4 °F 95% 30.02 in 7.0 mi Calm Calm - N/A   Clear
10:35 PM 69.8 °F - 68.4 °F 95% 30.03 in 7.0 mi Calm Calm - N/A   Clear
10:55 PM 69.4 °F - 68.0 °F 95% 30.04 in 10.0 mi Calm Calm - N/A   Clear
11:15 PM 68.4 °F - 67.1 °F 96% 30.04 in 2.5 mi Calm Calm - N/A   Clear
11:35 PM 68.0 °F - 66.7 °F 96% 30.04 in 2.5 mi Calm Calm - N/A   Clear
11:55 PM 67.3 °F - 66.4 °F 97% 30.04 in 2.0 mi Calm Calm - N/A   Clear